Tracking 28096 objects as of 28-Sep-2023
HD Live streaming from Space Station
objects crossing your sky now

DELTA 1 DEB

Track DELTA 1 DEB now!
10-day predictions


NORAD ID: 13533
Int'l Code: 1976-077EF
Perigee: 1,509.5 km
Apogee: 2,099.9 km
Inclination: 101.9 °
Period: 122.6 minutes
Semi major axis: 8175 km
RCS: 0.0714 m2 (small)
Launch date: July 29, 1976
Source: United States (US)
Launch site: AIR FORCE WESTERN TEST RANGE (AFWTR)

Note: This is SATELLITE DEBRIS
Your satellite tracking list
Your tracking list is empty




NASA's NSSDC Master Catalog

Two Line Element Set (TLE):
1 13533U 76077EF  23270.76225712 -.00000265  00000-0 -32820-2 0  9990
2 13533 101.8927 354.7456 0361117 116.1898   8.4693 11.74396317918833
Source of the keplerian elements: AFSPC